Flag for Colombia Weather past 2 weeks in Villavicencio, Colombia

Now
59 °F

Thunderstorms. Partly sunny.


Feels Like: 59 °F
Forecast: N/A
Wind: 2 mph from North

Location: Bogota / Eldorado

Current Time: Mar 30, 2015 at 3:37:34 PM

Latest Report: Mar 30, 2015 at 3:00 PM


Visibility: 5 mi

Pressure: 30.30 "Hg

Humidity: 82%

Dew point: 54 °F

Location of VillavicencioLocation

Historic Weather in Villavicencio — Graph

°F

Villavicencio temperature yesterday

Maximum temperature yesterday: 61 °F (at 10:00 AM)
Minimum temperature yesterday: 52 °F (at 12:00 AM)
Average temperature yesterday: 56 °F

Past Weeks' High & Low Weather Summary

 TemperatureHumidityPressure
High72 °F (Mar 15, 2:00 PM)100% (Mar 18, 5:00 AM)30.44 "Hg (Mar 18, 5:00 AM)
Low41 °F (Mar 22, 5:00 AM)36% (Mar 16, 1:00 PM)30.21 "Hg (Mar 15, 3:00 PM)
Average57 °F80%30.34 "Hg
* Reported Mar 15 2:00 PM — Mar 30 2:00 PM, Villavicencio, Weather by CustomWeather, © 2015

Note: Actual official high and low records may vary slightly from our data, if they occured in-between our weather recording intervals... More about our weather records

Advertising

Villavicencio weather history for previous 24 hours

 ConditionsComfort  
Time TempWeatherWind HumidityBarometerVisibility
2:00 PM
Mon, Mar 30
64 °FScattered showers. Scattered clouds.16 mph68%30.30 "Hg5 mi
1:00 PM64 °FScattered clouds.16 mph68%30.33 "HgN/A
12:00 PM68 °FPartly sunny.7 mph53%30.35 "HgN/A
11:00 AM64 °FScattered clouds.7 mph56%30.38 "HgN/A
10:00 AM63 °FScattered clouds.2 mph64%30.40 "HgN/A
9:00 AM61 °FScattered clouds.2 mph72%30.40 "Hg4 mi
8:00 AM55 °FFog.3 mph94%30.39 "Hg3 mi
7:00 AM52 °FDense fog.3 mph94%30.36 "Hg0 mi
6:00 AM50 °FFog.3 mph94%30.35 "Hg2 mi
5:00 AM50 °FFog.2 mph94%30.35 "Hg1 mi
4:00 AM50 °FFog.2 mph94%30.34 "Hg2 mi
3:00 AM50 °FFog.2 mph100%30.35 "Hg2 mi
2:00 AM52 °FFog.2 mph94%30.35 "Hg3 mi
1:00 AM50 °FFog.2 mph100%30.38 "Hg2 mi
12:00 AM50 °FFog.5 mph100%30.40 "Hg2 mi
11:00 PM
Sun, Mar 29
52 °FFog.3 mph94%30.42 "Hg2 mi
10:00 PM52 °FFog.2 mph94%30.42 "Hg3 mi
9:00 PM54 °FFog.3 mph94%30.40 "Hg2 mi
8:00 PM54 °FPassing clouds.5 mph94%30.38 "Hg5 mi
7:00 PM55 °FPassing clouds.5 mph88%30.36 "Hg4 mi
6:00 PM55 °FPartly sunny.5 mph88%30.34 "Hg4 mi
5:00 PM57 °FLight rain. Partly sunny.7 mph88%30.33 "Hg5 mi
4:00 PM59 °FPartly sunny.12 mph82%30.32 "HgN/A
3:00 PM59 °FScattered showers. Partly sunny.8 mph88%30.33 "Hg5 mi
Weather by CustomWeather, © 2015

See weather overviewHow to use our weather pages